Miscellaneous Local Product
Issued by NWS Hastings, NE

Home | Current Version | Previous Version | Text Only | Print | Product List | Glossary Off
Versions: 1 2 3 4 5 6 7 8 9 10 11 12 13 14 15 16 17 18 19 20 21 22 23 24 25 26 27 28 29 30 31 32 33 34 35 36 37 38 39 40 41 42 43 44 45 46 47 48 49 50

329
AXUS43 KGID 261002
MISGRI

GID CWA HOURLY WEATHER ROUNDUP
NATIONAL WEATHER SERVICE HASTINGS NE
500 AM CDT WED APR 26 2017

NOTE: "FAIR" INDICATES FEW OR NO CLOUDS BELOW 12,000 FEET WITH NO
SIGNIFICANT WEATHER AND/OR OBSTRUCTIONS TO VISIBILITY.

...SOUTH CENTRAL NEBRASKA...

CITY           SKY/WX    TMP DP  RH WIND       PRES   REMARKS
GRAND ISLAND   CLOUDY    34  31  88 NW21G26   29.73R WCI  22
HASTINGS       CLOUDY    35  30  82 N20       29.73S WCI  24
KEARNEY        CLOUDY    34  28  80 N16G25    29.75R WCI  23
ORD            CLOUDY    33  27  78 NW23G31   29.73R WCI  21
YORK           CLOUDY    36  32  87 NW16G26   29.70R WCI  26
AURORA         CLOUDY    35  32  90 N25       29.72R WCI  22
LEXINGTON      CLOUDY    33  28  81 N17G26    29.77R WCI  22
HOLDREGE       CLOUDY    34  28  80 N21       29.75S WCI  22
HEBRON         CLOUDY    38  32  79 N18G26    29.68F WCI  29

...NEBRASKA PANHANDLE...

CITY           SKY/WX    TMP DP  RH WIND       PRES   REMARKS
CHADRON        CLOUDY    29  26  89 N5        29.86S WCI  24
ALLIANCE       CLOUDY    28  24  85 NW13      29.81S WCI  17
SCOTTSBLUFF    CLOUDY    33  25  72 NW13      29.84S WCI  24
SIDNEY         CLOUDY    31  27  85 N16G22    29.80S WCI  20

...WESTERN AND NORTH CENTRAL NEBRASKA...

CITY           SKY/WX    TMP DP  RH WIND       PRES   REMARKS
VALENTINE      CLOUDY    31  25  78 NW17      29.78F WCI  19
AINSWORTH      CLOUDY    30  28  92 NW16G29   29.76S WCI  19
ONEILL         CLOUDY    32  29  90 NW20G28   29.73S WCI  20
BROKEN BOW     CLOUDY    32  25  75 N25G32    29.75R WCI  19
IMPERIAL       PTCLDY    31  24  75 N18       29.79S WCI  19
NORTH PLATTE   CLOUDY    32  25  75 NW17      29.79R WCI  21
MCCOOK         CLOUDY    34  26  72 N13       29.80R WCI  25

...EASTERN NEBRASKA...

CITY           SKY/WX    TMP DP  RH WIND       PRES   REMARKS
NORFOLK        CLOUDY    33  29  85 NW23      29.67R WCI  21
SO SIOUX CITY  CLOUDY    36  34  92 NW20G37   29.62R WCI  25
TEKAMAH        CLOUDY    37  34  89 NW21      29.64R WCI  26
COLUMBUS       CLOUDY    36  28  75 NW14G22   29.70R WCI  27
ALBION         CLOUDY    35  31  87 NW20G29   29.70R WCI  24
OMAHA EPPLEY   DRIZZLE   38  34  85 NW15G25   29.62R FOG     WCI  29
OFFUTT AFB     CLOUDY    37  36  93 NW16G23   29.61R WCI  28
MILLARD        CLOUDY    39  37  91 NW17G24   29.63S FOG     WCI  30
LINCOLN        CLOUDY    38  32  79 NW23G30   29.68R WCI  27
NEBRASKA CITY  CLOUDY    38  34  86 NW20      29.61R WCI  28
BEATRICE       CLOUDY    38  34  85 NW24      29.65F WCI  27
FALLS CITY     CLOUDY    40  36  86 NW16G28   29.58R WCI  31

...NORTHERN KANSAS...

CITY           SKY/WX    TMP DP  RH WIND       PRES   REMARKS
GOODLAND       CLEAR     32  27  81 N15       29.77R WCI  22
HILL CITY      CLOUDY    38  29  70 N13       29.79R WCI  30
NORTON         CLOUDY    36  25  64 NW14G22   29.77R WCI  27
PHILLIPSBURG   CLOUDY    37  28  70 NW16G23   29.77S WCI  28
SMITH CENTER   CLOUDY    36  30  80 NW20      29.75R WCI  25
HAYS           CLOUDY    39  31  72 N21       29.73  WCI  29
RUSSELL        CLOUDY    38  32  79 N22       29.70S WCI  27
CONCORDIA      CLOUDY    39  34  82 NW21G31   29.66F WCI  29
SALINA         CLOUDY    44  36  73 N22G29    29.67S
TOPEKA         CLOUDY    44  40  85 NW15G22   29.59R



USA.gov is the U.S. government's official web portal to all federal, state and local government web resources and services.